Date,TemperatureHighF,TemperatureAvgF,TemperatureLowF,DewpointHighF,DewpointAvgF,DewpointLowF,HumidityHigh,HumidityAvg,HumidityLow,PressureMaxIn,PressureMinIn,WindSpeedMaxMPH,WindSpeedAvgMPH,GustSpeedMaxMPH,PrecipitationSumIn
2014-1-1,47.3,38.6,27.5,38.6,31.9,24.0,92,77,62,30.06,29.74,14,5,14,0.00
2014-1-2,46.0,32.3,25.2,39.6,20.5,8.3,87,63,44,30.18,29.71,24,9,24,0.00
2014-1-3,25.9,25.2,24.6,16.8,16.1,15.2,69,68,67,29.97,29.97,13,6,13,0.00
2014-1-4,43.0,35.4,25.9,33.9,21.4,15.3,73,57,49,29.97,29.68,29,9,29,0.00
2014-1-5,48.2,34.2,14.4,47.7,27.6,-2.6,98,77,46,30.12,29.47,32,11,32,0.41
2014-1-6,14.4,9.9,7.0,-2.6,-6.8,-9.4,46,46,46,30.39,30.12,23,7,23,0.00
2014-1-7,7.5,7.4,7.0,-8.9,-9.0,-9.4,46,46,46,30.36,30.33,6,2,6,0.00
2014-1-8,33.4,32.9,32.5,26.6,25.7,23.7,78,75,67,30.21,30.18,5,2,5,0.05
2014-1-9,35.1,33.5,32.4,33.8,31.1,26.1,97,91,77,30.21,29.97,14,2,14,0.08
2014-1-10,48.7,42.5,34.3,48.2,41.8,33.6,98,97,96,29.97,29.44,17,4,17,1.66
2014-1-11,49.8,44.5,39.2,48.7,39.0,31.5,98,82,65,29.79,29.44,16,4,16,0.00
2014-1-12,56.1,41.8,30.2,42.6,33.9,26.1,91,74,56,29.85,29.68,25,6,25,0.00
2014-1-15,34.9,30.4,26.1,14.1,11.0,8.4,59,44,40,30.03,29.88,17,5,17,0.00
2014-1-16,53.2,39.6,26.4,31.5,23.1,14.1,67,52,39,29.88,29.56,27,7,27,0.00
2014-1-17,40.6,32.9,26.6,23.8,14.1,7.5,52,45,41,29.91,29.71,22,7,22,0.00
2014-1-18,54.1,49.5,44.4,29.1,25.7,22.6,44,39,37,29.74,29.53,30,6,30,0.00
2014-1-19,46.8,39.0,29.1,28.1,22.7,16.6,61,52,42,30.00,29.74,19,6,19,0.00
2014-1-20,59.0,46.1,34.0,36.5,29.1,21.0,65,52,40,29.76,29.62,13,4,13,0.00
2014-1-21,45.9,29.7,21.2,28.3,11.8,5.1,54,47,42,30.09,29.74,36,7,36,0.00
2014-1-22,40.1,28.9,20.7,19.1,12.3,6.7,57,50,41,30.03,29.85,20,3,20,0.00
2014-1-23,33.4,33.2,32.7,13.4,12.9,12.0,43,43,42,30.09,30.03,11,3,11,0.00
2014-2-2,36.1,34.8,30.7,34.8,32.6,27.2,95,92,81,29.97,29.82,17,9,17,0.00
2014-2-3,24.8,24.2,23.5,18.1,16.1,14.2,76,71,66,30.09,30.03,9,2,9,0.00
2014-2-4,32.0,28.9,24.6,31.5,27.0,18.1,98,93,76,30.03,29.68,19,2,19,0.04
2014-2-5,32.4,27.6,21.6,31.9,26.2,17.1,98,94,81,30.30,29.74,1,1,0,0.00
2014-2-6,21.6,18.9,15.4,17.9,13.2,8.6,86,78,72,30.36,30.24,11,2,11,0.00
2014-2-7,20.7,18.4,14.5,12.9,9.0,4.6,74,66,60,30.27,30.12,12,3,12,0.00
2014-2-8,32.0,30.9,30.4,29.0,27.9,26.7,92,88,82,29.97,29.91,1,1,0,0.00
2014-2-9,36.3,32.0,28.0,33.1,29.7,19.2,98,92,66,30.06,29.91,18,1,18,0.04
2014-2-10,28.0,26.0,24.3,20.8,17.2,13.5,74,69,63,30.09,30.03,18,8,18,0.00
2014-2-13,46.8,36.6,23.2,29.4,22.3,14.3,72,57,40,29.80,29.62,18,4,18,0.12
2014-2-14,38.5,32.6,29.5,32.6,27.0,24.1,88,80,67,29.65,29.50,10,1,10,0.00
2014-3-3,19.6,19.3,19.0,6.3,5.7,5.3,56,55,54,30.18,30.15,10,4,10,0.00
2014-3-4,36.5,24.1,15.3,19.2,11.7,5.6,74,59,47,30.15,29.94,9,3,9,0.00
2014-3-5,40.1,31.2,22.5,32.2,26.4,15.4,96,83,64,30.03,29.94,14,3,14,0.25
2014-3-6,40.1,34.8,31.1,32.3,25.7,21.8,97,70,55,29.97,29.85,14,3,14,0.21
2014-3-18,57.6,52.7,50.9,44.7,44.1,42.3,78,73,57,29.62,29.53,23,8,23,0.21
2014-3-19,57.4,52.4,47.1,50.0,39.0,32.1,94,62,44,29.97,29.59,21,8,21,0.00
2014-3-20,64.0,61.7,57.0,37.3,36.6,35.7,47,39,36,29.88,29.85,14,7,14,0.00
2014-3-26,54.7,49.9,47.7,30.6,25.8,23.2,51,39,31,30.00,29.91,14,5,14,0.00
2014-3-27,64.0,54.4,47.3,59.9,42.9,28.6,98,68,47,29.91,29.65,29,10,29,0.25
2014-3-28,67.3,60.7,56.8,59.7,55.7,48.6,98,84,64,29.85,29.68,26,7,26,0.00
2014-3-31,60.1,58.9,57.2,46.4,45.7,45.0,65,62,59,29.76,29.76,6,2,6,0.00
2014-4-1,57.2,56.5,56.1,45.6,45.4,45.2,67,66,66,29.76,29.76,3,1,3,0.00
2014-4-4,57.6,51.9,45.7,36.4,32.2,29.8,55,47,42,29.94,29.79,16,6,16,0.00
2014-4-5,45.9,42.1,39.2,32.0,29.7,28.2,70,61,54,30.00,29.94,11,4,11,0.00
2014-4-6,59.2,48.0,40.8,46.7,37.9,34.0,90,69,47,29.88,29.56,11,3,11,0.00
2014-4-7,49.5,49.1,47.7,48.9,48.3,46.7,98,97,90,29.56,29.38,18,6,18,0.28
2014-4-10,72.7,57.1,48.6,53.0,45.8,40.7,79,67,49,29.79,29.76,26,8,26,0.00
2014-4-27,69.1,66.7,65.3,66.6,64.7,63.1,96,93,89,29.53,29.35,30,11,30,0.16
2014-5-2,59.7,50.1,45.0,44.3,40.4,38.0,80,70,48,29.79,29.76,8,2,8,0.00
2014-5-4,82.9,76.6,73.9,50.9,50.2,49.4,42,40,33,29.71,29.65,13,5,13,0.00
2014-5-5,86.4,75.6,63.0,54.3,49.5,44.8,66,41,28,29.71,29.56,21,7,21,0.00
2014-5-6,72.9,68.0,63.7,60.0,51.7,47.2,83,58,40,29.68,29.62,9,3,9,0.00
2014-5-10,84.9,76.6,70.7,71.2,68.2,67.0,88,76,61,29.76,29.68,16,4,16,0.00
2014-5-11,84.6,73.0,67.1,75.4,69.2,65.3,97,89,68,29.79,29.74,23,5,23,0.00
2014-5-14,55.2,53.3,52.0,54.4,52.3,51.1,98,96,94,29.88,29.82,19,8,19,0.54
2014-5-16,65.5,65.5,65.5,41.8,41.8,41.8,42,42,42,29.82,29.82,2,1,2,0.00
2014-5-17,62.1,59.5,57.7,53.9,52.6,51.4,86,78,68,29.97,29.91,4,1,4,0.00
2014-5-18,57.7,57.6,57.6,53.6,53.5,53.3,86,86,86,29.97,29.94,3,1,3,0.00
2014-5-21,86.0,83.5,79.5,68.9,66.9,64.3,65,58,50,29.85,29.79,21,8,21,0.00
2014-6-1,89.4,83.5,74.3,74.0,71.2,68.9,88,67,53,29.85,29.74,19,6,19,0.00
2014-6-2,74.3,72.9,71.8,70.7,69.6,69.0,91,90,88,29.82,29.79,13,6,13,0.00
2014-7-25,77.0,74.5,72.7,67.6,67.1,66.7,82,78,71,29.76,29.74,3,1,3,0.00
2014-7-26,95.0,82.2,69.4,79.7,73.9,66.4,93,77,58,29.76,29.68,18,4,18,0.00
2014-7-27,92.7,88.2,78.6,81.2,77.5,72.7,87,71,59,29.74,29.68,15,6,15,0.00
2014-7-28,82.2,82.2,82.2,72.7,72.7,72.7,73,73,73,29.74,29.74,2,2,3,0.00
2014-7-29,82.2,82.2,82.2,72.7,72.7,72.7,73,73,73,29.74,29.74,2,2,3,0.00
2014-7-30,74.1,71.6,70.5,65.8,64.8,63.1,84,79,69,29.85,29.82,6,2,6,0.00
2014-7-31,75.2,71.2,68.0,69.1,67.4,65.3,95,88,79,29.91,29.82,9,2,9,0.71
2014-8-1,75.7,70.7,70.2,69.1,68.1,67.4,93,91,80,29.85,29.82,6,2,6,0.00
2014-8-2,72.7,70.7,69.4,67.9,66.1,65.1,86,85,84,29.82,29.82,5,2,5,0.00
2014-8-30,73.8,49.2,73.8,73.2,48.8,73.0,98,65,98,29.92,29.91,3,2,0,0.00
2014-8-31,91.4,79.6,72.7,77.6,74.1,72.4,99,85,59,29.97,29.88,7,2,0,0.01
2014-9-1,92.7,81.8,73.0,77.1,74.2,72.6,99,80,56,29.99,29.85,10,3,0,0.00
2014-9-2,88.2,77.9,70.7,75.3,72.8,69.8,99,85,62,30.00,29.85,6,2,0,0.33
2014-9-3,94.6,80.0,65.7,75.4,71.0,65.4,99,77,47,30.00,29.88,7,1,0,0.00
2014-9-4,95.7,82.7,70.0,79.3,74.8,69.7,99,79,56,30.01,29.92,5,2,0,0.00
2014-9-5,99.0,84.2,72.9,79.2,75.3,72.6,99,77,48,30.05,29.90,6,1,0,0.00
2014-9-6,88.0,76.9,67.5,74.2,70.2,60.4,97,81,60,30.05,29.94,8,3,0,0.03
2014-9-7,83.3,73.4,63.0,66.1,62.6,60.4,92,70,51,30.05,29.92,9,4,0,0.00
2014-9-8,88.0,74.7,61.7,69.0,63.5,59.3,92,70,46,30.00,29.87,5,2,0,0.00
2014-9-9,95.7,79.3,63.7,75.2,69.8,63.3,99,75,50,29.95,29.76,6,2,0,0.00
2014-9-10,94.5,83.7,73.4,77.7,74.3,71.4,98,75,54,29.80,29.68,12,4,0,0.00
2014-9-11,76.8,69.2,62.2,73.2,67.9,59.8,99,96,86,30.06,29.79,8,3,0,1.54
2014-9-12,63.3,60.5,57.2,59.7,57.9,54.5,99,91,85,30.16,30.05,8,4,0,0.00
2014-9-13,68.4,60.5,55.0,54.4,50.5,47.9,92,71,50,30.24,30.13,12,4,0,0.00
2014-9-14,75.2,63.4,51.3,57.5,53.1,47.7,96,71,51,30.20,30.05,6,2,0,0.00
2014-9-15,77.5,67.1,57.0,68.7,62.7,56.1,99,87,72,30.08,29.95,4,1,0,0.00
2014-9-16,73.6,68.9,64.9,68.2,62.9,60.0,99,82,65,30.04,29.93,8,3,0,0.00
2014-9-17,65.5,63.0,60.4,64.6,60.6,57.3,99,92,83,29.95,29.75,7,2,0,0.12
2014-9-18,72.1,66.2,61.5,65.6,63.6,61.2,99,92,77,29.90,29.80,6,2,0,0.02
2014-9-19,84.0,71.4,59.7,68.2,64.8,59.4,99,82,58,29.94,29.86,6,2,0,0.00
2014-9-20,93.2,76.2,60.4,73.4,67.6,60.1,99,78,47,29.97,29.81,5,1,0,0.00
2014-9-21,93.0,76.2,65.5,74.2,64.7,51.1,99,70,35,30.00,29.85,6,3,0,0.00
2014-9-22,77.7,65.9,53.2,56.6,53.1,49.3,88,65,43,30.14,30.00,8,3,0,0.00
2014-9-23,78.1,62.4,47.5,54.2,50.0,46.8,99,69,35,30.18,30.04,7,2,0,0.00
2014-9-24,85.6,67.2,49.8,64.0,56.6,49.3,99,72,42,30.15,30.03,5,2,0,0.00
2014-9-25,85.6,69.6,53.8,64.1,59.2,53.5,99,74,44,30.14,29.99,5,1,0,0.00
2014-9-26,86.2,70.7,55.4,63.8,60.3,55.1,99,74,44,30.06,29.95,6,1,0,0.00
2014-9-27,88.5,73.7,60.4,68.3,64.2,59.2,98,75,46,30.00,29.88,6,2,0,0.00
2014-9-28,88.3,74.2,59.9,69.8,64.6,59.6,99,75,45,29.99,29.86,5,1,0,0.00
2014-9-29,89.2,73.1,58.5,68.4,60.6,55.3,99,70,34,29.90,29.77,6,1,0,0.00
2014-9-30,90.1,72.3,54.3,62.6,59.0,53.7,99,68,36,29.82,29.70,6,1,0,0.00
2014-10-1,91.0,73.5,58.5,72.5,65.8,58.2,99,80,52,29.78,29.68,6,2,0,0.01
2014-10-2,87.8,73.4,63.9,78.3,70.1,63.6,99,90,69,29.79,29.54,14,2,0,0.84
2014-10-3,77.0,64.9,48.9,64.6,55.2,41.6,99,73,41,30.01,29.59,14,5,0,0.07
2014-10-4,65.7,53.0,41.2,42.3,38.0,31.1,94,62,29,30.00,29.83,17,5,0,0.00
2014-10-5,79.2,60.7,39.7,59.5,48.5,38.7,99,70,37,29.83,29.62,10,3,0,0.00
2014-10-6,80.1,69.9,60.8,64.5,60.2,49.9,95,74,37,29.76,29.62,9,5,0,0.02
2014-10-7,85.5,73.3,62.4,70.7,66.9,61.5,99,82,58,29.82,29.66,10,4,0,1.17
2014-10-8,83.8,73.2,61.3,70.9,61.3,54.3,95,70,37,29.99,29.82,6,2,0,0.00
2014-10-9,86.2,73.8,64.6,72.1,66.9,63.6,99,82,55,29.95,29.80,8,2,0,0.51
2014-10-10,67.3,63.4,57.0,66.5,62.8,56.7,99,98,91,29.90,29.77,8,4,0,0.33
2014-10-11,56.7,55.0,52.3,56.4,54.3,52.0,99,98,93,30.00,29.87,8,4,0,0.07
2014-10-12,72.3,63.7,55.9,69.2,63.0,55.6,99,98,89,29.91,29.71,5,2,0,0.13
2014-10-13,72.7,65.8,60.4,71.7,65.3,60.1,99,98,94,29.74,29.42,12,5,0,1.91
2014-10-14,62.6,58.3,55.2,60.1,55.2,51.6,99,90,74,29.73,29.43,16,6,0,0.07
2014-10-15,70.2,60.5,55.0,53.0,50.0,44.6,81,69,49,29.79,29.69,11,5,0,0.00
2014-10-16,75.9,59.9,44.1,50.8,47.1,43.1,97,67,35,29.86,29.71,8,2,0,0.00
2014-10-17,81.3,64.9,49.1,59.3,52.0,48.8,99,68,33,29.86,29.68,9,3,0,0.00
2014-10-18,68.5,60.0,50.0,51.2,49.7,48.6,96,70,51,30.02,29.86,8,3,0,0.00
2014-10-19,66.7,54.4,42.8,50.5,47.1,42.5,99,79,52,30.15,29.96,6,1,0,0.00
2014-10-20,76.3,60.3,45.5,58.3,53.1,45.0,99,80,52,29.97,29.84,7,2,0,0.00
2014-10-21,76.5,63.7,49.1,58.3,52.2,48.3,99,70,39,30.00,29.89,6,2,0,0.00
2014-10-22,67.3,55.4,44.4,48.8,46.0,43.3,97,74,45,30.17,30.01,7,2,0,0.00
2014-10-23,63.3,50.7,38.3,49.7,45.5,38.0,99,84,57,30.13,30.01,4,1,0,0.00
2014-10-24,75.2,57.6,42.1,58.9,51.5,41.8,99,83,56,30.05,29.93,6,1,0,0.00
2014-10-25,84.6,68.4,52.9,67.6,61.3,52.6,99,80,56,29.95,29.85,7,1,0,0.00
2014-10-26,86.2,68.5,54.7,69.8,62.5,54.4,99,83,52,29.88,29.74,6,2,0,0.00
2014-10-27,82.2,70.2,59.4,63.8,60.2,57.1,99,73,45,29.81,29.68,14,5,0,0.00
2014-10-28,69.3,62.4,52.7,66.4,58.8,51.0,99,88,77,30.00,29.77,10,3,0,0.69
2014-10-29,72.9,55.7,41.4,53.0,45.2,37.9,99,74,33,30.09,29.99,7,1,0,0.01
2014-10-30,72.1,53.7,36.1,52.3,43.2,35.5,99,72,35,30.06,29.86,6,1,0,0.00
2014-10-31,59.5,49.0,36.7,47.2,36.6,20.2,99,67,28,30.25,29.86,16,5,0,0.00
2014-11-1,54.1,40.0,28.9,30.8,26.7,23.1,98,62,36,30.34,30.25,9,4,0,0.00
2014-11-2,57.7,39.7,25.2,37.0,31.1,24.3,99,75,37,30.38,30.19,6,1,0,0.00
2014-11-3,70.7,53.0,34.5,40.9,37.8,33.5,97,61,31,30.27,30.08,7,3,0,0.00
2014-11-4,63.1,55.2,48.2,56.4,50.1,38.1,99,84,63,30.09,30.00,7,3,0,0.85
2014-11-5,53.4,50.7,43.3,53.1,50.3,43.0,99,99,94,30.13,30.03,7,2,0,0.38
2014-11-6,65.5,52.3,42.6,48.4,40.3,32.5,99,67,37,30.19,30.00,12,5,0,0.01
2014-11-7,53.2,41.1,34.7,38.1,34.4,31.4,91,78,46,30.17,29.89,6,2,0,0.00
2014-11-8,65.5,49.3,36.0,46.4,40.4,35.5,98,73,50,29.99,29.81,8,2,0,0.00
2014-11-9,61.3,52.9,34.7,45.8,42.9,34.2,99,71,49,30.00,29.80,7,2,0,0.00
2014-11-10,71.1,61.4,42.8,52.8,49.1,42.5,99,66,44,29.76,29.54,13,6,0,0.00
2014-11-11,61.5,46.0,33.8,59.2,39.3,26.8,96,78,63,30.12,29.64,14,5,0,0.01
2014-11-12,39.0,34.6,30.2,28.7,26.4,20.9,89,72,57,30.29,30.13,8,4,0,0.00
2014-11-13,39.9,32.3,25.9,21.0,15.0,12.5,66,50,34,30.38,30.29,10,4,0,0.00
2014-11-14,39.7,32.0,20.7,18.8,17.3,14.7,90,56,40,30.39,30.28,8,3,0,0.00
2014-11-15,44.2,36.8,25.5,31.1,24.9,20.4,91,64,39,30.30,30.07,7,3,0,0.06
2014-11-16,38.7,35.2,32.4,36.3,33.3,30.7,99,93,84,30.12,29.86,9,3,0,0.06
2014-11-17,37.9,29.6,21.0,32.2,19.3,9.3,99,67,43,30.26,29.88,12,5,0,0.01
2014-11-18,38.7,26.9,14.7,21.8,14.1,8.5,80,60,37,30.36,30.14,9,4,0,0.00
2014-11-19,55.6,41.9,27.9,33.2,27.8,22.5,82,59,35,30.13,29.95,18,5,0,0.00
2014-11-20,52.3,40.3,23.0,29.7,25.7,19.7,90,59,34,30.20,30.08,5,2,0,0.00
2014-11-21,47.1,43.3,40.6,42.0,35.7,29.7,93,75,59,30.26,30.15,6,3,0,0.01
2014-11-22,68.7,53.9,42.4,51.1,45.6,41.0,97,76,47,30.15,29.77,11,2,0,0.00
2014-11-23,61.3,54.4,43.3,59.5,53.6,41.8,99,97,90,29.77,29.20,9,2,0,0.90
2014-11-24,61.0,49.7,37.6,58.5,36.7,29.7,92,63,34,29.96,29.20,18,7,0,0.01
2014-11-25,50.9,37.3,24.8,30.2,26.2,23.2,96,67,39,30.14,29.97,7,2,0,0.00
2014-11-26,49.5,35.8,23.5,38.5,31.0,22.3,98,84,64,30.08,29.84,11,2,0,0.01
2014-11-27,49.5,38.7,26.2,32.7,29.6,25.2,98,71,50,30.40,30.21,14,3,0,0.01
2014-11-28,52.7,39.4,24.8,38.2,32.5,24.1,99,78,54,30.33,29.90,12,4,0,0.00
2014-11-29,64.4,55.5,41.7,57.1,50.1,34.7,91,82,74,29.90,29.71,16,6,0,0.00
2014-11-30,73.8,66.2,61.7,61.3,59.1,56.1,87,78,65,30.00,29.75,16,8,0,0.00
2014-12-1,62.6,37.2,30.2,57.8,34.5,28.7,97,90,80,30.38,30.00,13,5,0,0.05
2014-12-2,40.3,35.5,30.6,36.7,32.6,29.3,99,89,77,30.29,30.10,6,3,0,0.00
2014-12-3,45.5,41.7,39.7,41.0,38.1,35.9,98,87,72,30.26,30.12,6,2,0,0.00
2014-12-4,50.5,44.7,40.5,46.6,43.3,38.6,99,95,85,30.18,30.07,4,2,0,0.00
2014-12-5,63.0,55.2,46.4,62.7,54.9,46.1,99,99,99,30.08,29.88,6,2,0,0.87
2014-12-6,61.2,48.2,39.6,60.9,44.9,35.5,99,88,79,30.43,29.92,14,6,0,0.00
2014-12-7,44.6,40.3,38.3,37.4,35.6,33.8,90,83,75,30.41,30.20,11,4,0,0.00
2014-12-8,57.4,44.5,35.4,45.4,39.8,34.2,99,84,64,30.19,30.07,8,2,0,0.00
2014-12-9,47.1,41.8,36.1,40.2,35.0,31.6,92,77,58,30.26,30.09,11,5,0,0.00
2014-12-10,46.2,39.6,34.2,33.7,32.6,30.5,88,76,60,30.28,30.14,4,2,0,0.00
2014-12-11,41.2,37.6,33.8,34.3,32.2,29.2,95,81,72,30.25,30.15,5,2,0,0.00
2014-12-12,52.5,43.8,35.8,40.2,37.2,34.0,93,78,59,30.31,30.20,4,1,0,0.00
2014-12-13,54.0,48.5,46.0,45.5,42.7,39.7,90,80,68,30.22,30.08,6,1,0,0.00
2014-12-14,64.0,52.5,39.7,52.0,46.6,38.6,97,81,62,30.08,29.86,6,2,0,0.00
2014-12-15,61.2,52.9,47.1,58.7,50.0,39.8,99,91,68,29.87,29.58,15,5,0,0.47
2014-12-16,49.1,42.0,31.6,39.1,33.4,27.9,86,72,61,30.21,29.77,15,7,0,0.00
2014-12-17,41.5,35.0,26.8,35.3,30.0,25.0,97,82,64,30.25,30.12,6,2,0,0.23
2014-12-18,42.4,38.6,35.2,37.3,36.2,34.2,98,91,81,30.17,30.08,5,3,0,0.25
2014-12-19,43.2,38.7,36.3,36.4,34.4,32.6,94,85,71,30.19,30.10,7,3,0,0.00
2014-12-20,46.9,39.6,32.4,36.5,34.8,31.4,97,84,66,30.18,30.12,4,1,0,0.00
2014-12-21,50.4,40.2,30.0,40.2,35.4,29.5,99,84,65,30.15,29.79,6,2,0,0.00
2014-12-22,55.2,49.6,42.1,54.6,48.6,37.0,99,97,82,29.78,29.45,7,3,0,0.16
2014-12-23,53.2,47.9,45.3,52.6,46.2,42.8,99,94,89,29.67,29.50,5,2,0,0.16
2014-12-24,46.2,42.5,39.7,42.8,38.0,34.1,97,84,68,29.86,29.53,9,5,0,0.06
2014-12-25,53.2,42.8,28.9,42.2,36.5,28.2,99,79,63,30.04,29.85,14,3,0,0.00
2014-12-26,56.8,45.2,33.3,45.7,39.2,32.0,99,81,64,30.10,29.98,10,3,0,0.00
2014-12-27,52.7,48.0,40.3,51.9,47.3,37.3,99,98,89,30.07,29.96,9,4,0,0.32
2014-12-28,39.9,36.9,33.8,37.7,33.5,30.3,94,87,83,30.13,30.05,8,3,0,0.00
2014-12-29,38.7,33.7,30.4,30.2,28.9,26.9,88,82,70,30.26,30.07,7,4,0,0.00
2014-12-30,41.4,33.1,27.1,29.3,25.5,21.8,88,74,57,30.54,30.25,14,4,0,0.00
2014-12-31,34.9,29.7,25.3,22.8,17.4,12.3,81,61,40,30.54,30.31,9,3,0,0.00
2015-1-1,39.7,34.5,30.2,33.9,27.9,21.8,96,77,63,30.33,30.14,5,2,0,0.02
2015-1-2,40.6,37.4,34.9,40.3,36.9,33.9,99,98,96,30.21,29.91,5,2,0,0.25